Погода в Адажи

Латвия     57°04′37″N   24°19′35″E
темп.,
°C
ветер,
м/с
пор.,
м/с
влажн.,
%
обл.,
%
осадки,
мм/ч
давл.,
гПа
погр.,
м
16 сентября, чт
чт1600:00+8всв23780 0.0 102077
03:00+6вюв23814 0.0 102072
06:00+5вюв258642 0.0 1020126
09:00+7вюв3674100 0.0 1020240
12:00+11вюв4662100 0.0 1020535
15:00+15вюв4551100 0.0 1018995
18:00+14вюв3654100 0.0 1017798
21:00+11в41062100 0.0 1016428
17 сентября, пт
пт1700:00+10в41066100 0.1 1016420
03:00+9в41170100 0.2 1015411
06:00+9в41165100 0.0 1015465
09:00+9в51264100 0.1 1015516
12:00+13в585029 0.0 1016869
15:00+15в574487 0.0 10161295
18:00+14в4848100 0.0 10171182
21:00+10всв41159100 0.0 1018724
18 сентября, сб
сб1800:00+9всв41264100 0.0 1019625
03:00+7всв41268100 0.0 1020447
06:00+6всв41270100 0.0 1020435
09:00+7всв4136273 0.0 1021582
12:00+12в6104294 0.0 10211126
15:00+14всв583737 0.0 10201448
18:00+13всв59445 0.0 10201313
21:00+9всв411590 0.0 1022708
19 сентября, вс
вс1900:00+7св412680 0.0 1022496
03:00+5св412800 0.0 1022374
06:00+5св412850 0.0 1022421
09:00+6св513740 0.0 1022494
12:00+12всв58480 0.0 10221037
15:00+14всв57385 0.0 10211553
18:00+13всв47465 0.0 10221548
21:00+9св411615 0.0 1023621
20 сентября, пн
пн2000:00+6св411695 0.0 1024529
03:00+5св411775 0.0 1024430
06:00+4св412831 0.0 1025404
09:00+5св411744 0.0 1026499
12:00+10всв58475 0.0 10251111
15:00+13св57385 0.0 10251574
18:00+12св47465 0.0 10251341
21:00+7св310630 0.0 1026421